^^
Datos históricos de la estación: Murcia-Puente Tocinos
Diario Informe para Marzo 2, 2019 Unidades:  Métrico    Inglés   Ambas
Diario Semanal Mensual Anual Configurable
  Máximo: Mínimo: Media:
Temperatura: 23.3 °C 11.9 °C 16.3 °C
Punto de rocio: 11.4 °C 3.5 °C 7.4 °C
Humedad: 89% 28% 59%
Velocidad viento: 17.2km/h 0.0km/h 5.9km/h
Racha viento: 25.9km/h - -
Viento- - SSE
Presión: 1023.4 hPa 1019.9 hPa -
Precipitación: 0.0 mm    
Historical Graphs
 
 
Tabla de datos para Marzo 2, 2019
Hora Temperatura Punto de rocio Presión Viento Velocidad viento Racha viento Humedad Intensidad lluvia(por hora) Nubes
00:05 13.7 °C 8.7 °C 1020.4 hPa South 6.4 km/h 7.4 km/h 72% 0.0 mm CLR
00:09 13.7 °C 8.7 °C 1020.4 hPa South 5.8 km/h 7.4 km/h 72% 0.0 mm CLR
00:14 13.6 °C 8.7 °C 1020.4 hPa South 5.8 km/h 5.6 km/h 72% 0.0 mm CLR
00:19 13.6 °C 8.7 °C 1020.3 hPa SSW 4.7 km/h 8.4 km/h 72% 0.0 mm CLR
00:24 13.6 °C 8.8 °C 1020.3 hPa SSW 4.7 km/h 7.4 km/h 73% 0.0 mm CLR
00:29 13.6 °C 8.8 °C 1020.3 hPa SW 6.4 km/h 7.4 km/h 73% 0.0 mm CLR
00:34 13.7 °C 8.7 °C 1020.2 hPa SW 6.4 km/h 7.4 km/h 72% 0.0 mm CLR
00:39 13.7 °C 8.7 °C 1020.2 hPa SW 5.0 km/h 7.4 km/h 72% 0.0 mm CLR
00:44 13.7 °C 8.7 °C 1020.2 hPa SW 5.0 km/h 5.8 km/h 72% 0.0 mm CLR
00:49 13.7 °C 8.7 °C 1020.2 hPa WSW 4.7 km/h 7.4 km/h 72% 0.0 mm CLR
00:55 13.6 °C 8.7 °C 1020.2 hPa SW 4.7 km/h 9.3 km/h 72% 0.0 mm CLR
00:59 13.4 °C 8.4 °C 1020.2 hPa West 5.8 km/h 9.3 km/h 72% 0.0 mm CLR
01:04 13.4 °C 8.4 °C 1020.3 hPa WSW 5.8 km/h 7.4 km/h 72% 0.0 mm CLR
01:09 13.4 °C 8.4 °C 1020.3 hPa WSW 5.0 km/h 7.4 km/h 72% 0.0 mm CLR
01:14 13.3 °C 8.3 °C 1020.3 hPa WNW 5.0 km/h 5.8 km/h 72% 0.0 mm CLR
01:19 13.3 °C 8.3 °C 1020.2 hPa WNW 3.9 km/h 5.6 km/h 72% 0.0 mm CLR
01:24 13.3 °C 8.3 °C 1020.2 hPa WNW 3.9 km/h 7.4 km/h 72% 0.0 mm CLR
01:29 13.4 °C 8.4 °C 1020.2 hPa WNW 3.2 km/h 5.6 km/h 72% 0.0 mm CLR
01:34 13.4 °C 8.4 °C 1020.1 hPa SW 3.2 km/h 7.4 km/h 72% 0.0 mm CLR
01:39 13.3 °C 8.3 °C 1020.1 hPa SW 2.9 km/h 6.4 km/h 72% 0.0 mm CLR
01:44 13.2 °C 8.3 °C 1020.1 hPa SW 2.9 km/h 5.6 km/h 72% 0.0 mm CLR
01:49 13.2 °C 8.3 °C 1020.2 hPa SW 3.2 km/h 3.9 km/h 72% 0.0 mm CLR
01:54 13.1 °C 8.2 °C 1020.2 hPa South 3.2 km/h 8.4 km/h 72% 0.0 mm CLR
01:59 13.0 °C 8.1 °C 1020.2 hPa South 3.2 km/h 7.4 km/h 72% 0.0 mm CLR
02:04 12.9 °C 7.9 °C 1020.2 hPa SSW 3.2 km/h 6.4 km/h 72% 0.0 mm CLR
02:09 12.8 °C 7.9 °C 1020.2 hPa WSW 5.8 km/h 9.5 km/h 72% 0.0 mm CLR
02:14 12.9 °C 7.9 °C 1020.2 hPa NW 5.8 km/h 5.6 km/h 72% 0.0 mm CLR
02:19 12.8 °C 7.9 °C 1020.2 hPa NW 3.9 km/h 3.9 km/h 72% 0.0 mm CLR
02:24 12.6 °C 7.7 °C 1020.2 hPa NW 3.9 km/h 5.0 km/h 72% 0.0 mm CLR
02:29 12.3 °C 7.6 °C 1020.2 hPa SSE 3.2 km/h 3.7 km/h 73% 0.0 mm CLR
02:34 12.1 °C 7.6 °C 1020.3 hPa SSE 3.2 km/h   74% 0.0 mm CLR
02:39 12.0 °C 7.5 °C 1020.3 hPa SSE 2.3 km/h 3.9 km/h 74% 0.0 mm CLR
02:44 12.0 °C 7.5 °C 1020.3 hPa SSE 2.3 km/h 7.4 km/h 74% 0.0 mm CLR
02:49 12.1 °C 7.6 °C 1020.2 hPa SSW 4.7 km/h 7.4 km/h 74% 0.0 mm CLR
02:54 12.2 °C 7.5 °C 1020.2 hPa SSW 4.7 km/h 8.4 km/h 73% 0.0 mm CLR
02:59 12.3 °C 7.6 °C 1020.2 hPa SW 6.4 km/h 11.1 km/h 73% 0.0 mm CLR
03:04 12.5 °C 7.6 °C 1020.1 hPa WSW 6.4 km/h 7.4 km/h 72% 0.0 mm CLR
03:09 12.6 °C 7.5 °C 1020.1 hPa SW 6.4 km/h 9.3 km/h 71% 0.0 mm CLR
03:14 12.7 °C 7.4 °C 1020.1 hPa SW 6.4 km/h 9.3 km/h 70% 0.0 mm CLR
03:19 12.8 °C 7.3 °C 1020.1 hPa SW 6.9 km/h 9.5 km/h 69% 0.0 mm CLR
03:24 12.9 °C 6.9 °C 1020.1 hPa South 6.9 km/h 11.1 km/h 67% 0.0 mm CLR
03:29 13.0 °C 6.8 °C 1020.1 hPa SW 8.7 km/h 11.1 km/h 66% 0.0 mm CLR
03:34 13.1 °C 6.7 °C 1020.0 hPa South 8.7 km/h 13.0 km/h 65% 0.0 mm CLR
03:39 13.2 °C 6.6 °C 1020.0 hPa SSW 8.4 km/h 13.0 km/h 64% 0.0 mm CLR
03:45 13.3 °C 6.2 °C 1020.0 hPa SSW 8.0 km/h 16.1 km/h 62% 0.0 mm CLR
03:49 13.5 °C 5.9 °C 1019.9 hPa South 11.1 km/h 16.7 km/h 60% 0.0 mm CLR
03:54 13.7 °C 5.6 °C 1019.9 hPa West 11.1 km/h 13.0 km/h 58% 0.0 mm CLR
03:59 14.0 °C 5.3 °C 1019.9 hPa SSW 9.5 km/h 20.4 km/h 56% 0.0 mm CLR
04:04 14.2 °C 5.3 °C 1020.0 hPa NW 9.5 km/h 11.1 km/h 55% 0.0 mm CLR
04:09 14.2 °C 5.3 °C 1020.0 hPa WSW 6.9 km/h 7.4 km/h 55% 0.0 mm CLR
04:14 14.1 °C 5.4 °C 1020.0 hPa SW 6.9 km/h 9.5 km/h 56% 0.0 mm CLR
04:19 14.2 °C 5.0 °C 1019.9 hPa SW 7.6 km/h 13.0 km/h 54% 0.0 mm CLR
04:24 14.3 °C 4.8 °C 1019.9 hPa SW 7.6 km/h 13.0 km/h 53% 0.0 mm CLR
04:29 14.6 °C 4.8 °C 1019.9 hPa WSW 8.7 km/h 14.0 km/h 52% 0.0 mm CLR
04:34 14.8 °C 4.8 °C 1020.0 hPa SSW 8.7 km/h 13.0 km/h 51% 0.0 mm CLR
04:39 14.8 °C 4.8 °C 1020.0 hPa WSW 10.0 km/h 9.3 km/h 51% 0.0 mm CLR
04:44 14.8 °C 4.4 °C 1020.0 hPa SSW 10.0 km/h 11.1 km/h 50% 0.0 mm CLR
04:49 14.9 °C 4.3 °C 1020.0 hPa SW 8.4 km/h 11.1 km/h 49% 0.0 mm CLR
04:54 15.0 °C 4.4 °C 1020.0 hPa SW 8.4 km/h 9.3 km/h 49% 0.0 mm CLR
04:59 15.1 °C 4.2 °C 1020.0 hPa SW 7.6 km/h 13.0 km/h 48% 0.0 mm CLR
05:05 15.1 °C 4.4 °C 1019.9 hPa SW 8.0 km/h 12.9 km/h 49% 0.0 mm CLR
05:09 14.9 °C 4.3 °C 1019.9 hPa SSW 8.4 km/h 9.3 km/h 49% 0.0 mm CLR
05:14 14.9 °C 4.3 °C 1019.9 hPa SW 8.4 km/h 7.4 km/h 49% 0.0 mm CLR
05:19 14.8 °C 4.2 °C 1020.1 hPa West 5.8 km/h 7.4 km/h 49% 0.0 mm CLR
05:24 14.8 °C 4.4 °C 1020.1 hPa West 5.8 km/h 7.4 km/h 50% 0.0 mm CLR
05:29 14.4 °C 4.4 °C 1020.1 hPa WSW 5.8 km/h 9.3 km/h 51% 0.0 mm CLR
05:34 13.9 °C 4.4 °C 1020.2 hPa West 5.8 km/h 10.0 km/h 53% 0.0 mm CLR
05:39 13.6 °C 4.4 °C 1020.2 hPa West 6.9 km/h 10.0 km/h 54% 0.0 mm CLR
05:44 13.3 °C 4.4 °C 1020.2 hPa WSW 6.9 km/h 11.1 km/h 55% 0.0 mm CLR
05:49 13.2 °C 4.6 °C 1020.3 hPa WSW 8.4 km/h 9.3 km/h 56% 0.0 mm CLR
05:55 13.2 °C 4.6 °C 1020.3 hPa WSW 8.0 km/h 9.7 km/h 56% 0.0 mm CLR
05:59 13.3 °C 4.4 °C 1020.3 hPa SW 5.8 km/h 7.4 km/h 55% 0.0 mm CLR
06:05 13.3 °C 4.4 °C 1020.6 hPa South 4.8 km/h 8.0 km/h 55% 0.0 mm CLR
06:09 13.3 °C 4.4 °C 1020.6 hPa East 4.7 km/h 9.3 km/h 55% 0.0 mm CLR
06:14 13.5 °C 4.4 °C 1020.6 hPa ESE 4.7 km/h 7.4 km/h 54% 0.0 mm CLR
06:19 13.7 °C 4.6 °C 1020.8 hPa South 5.0 km/h 7.4 km/h 54% 0.0 mm CLR
06:24 13.7 °C 4.6 °C 1020.8 hPa NW 5.0 km/h 7.4 km/h 54% 0.0 mm CLR
06:29 13.6 °C 4.2 °C 1020.8 hPa NW 4.7 km/h 5.0 km/h 53% 0.0 mm CLR
06:35 13.7 °C 4.3 °C 1020.9 hPa NW 3.2 km/h 8.0 km/h 53% 0.0 mm CLR
06:39 13.9 °C 4.2 °C 1020.9 hPa West 4.7 km/h 7.6 km/h 52% 0.0 mm CLR
06:45 14.1 °C 4.4 °C 1020.9 hPa WSW 4.7 km/h 5.6 km/h 52% 0.0 mm CLR
06:49 14.2 °C 4.2 °C 1021.1 hPa WSW 5.0 km/h 7.4 km/h 51% 0.0 mm CLR
06:55 14.3 °C 4.0 °C 1021.1 hPa WSW 5.0 km/h 5.8 km/h 50% 0.0 mm CLR
06:59 14.3 °C 4.0 °C 1021.1 hPa WSW 3.9 km/h 5.6 km/h 50% 0.0 mm CLR
07:04 14.2 °C 4.2 °C 1021.2 hPa NNW 3.9 km/h 5.8 km/h 51% 0.0 mm CLR
07:09 13.7 °C 4.3 °C 1021.2 hPa NNE 3.9 km/h 6.4 km/h 53% 0.0 mm CLR
07:14 13.2 °C 4.3 °C 1021.2 hPa NNE 3.9 km/h 5.8 km/h 55% 0.0 mm CLR
07:19 12.8 °C 4.5 °C 1021.4 hPa NNE 3.9 km/h 7.4 km/h 57% 0.0 mm CLR
07:25 12.5 °C 5.4 °C 1021.4 hPa NE 3.9 km/h 7.4 km/h 62% 0.0 mm CLR
07:29 12.2 °C 6.4 °C 1021.4 hPa NNE 4.7 km/h 9.3 km/h 68% 0.0 mm CLR
07:35 12.1 °C 7.2 °C 1021.6 hPa NNE 3.2 km/h 8.0 km/h 72% 0.0 mm CLR
07:39 11.9 °C 7.0 °C 1021.6 hPa NNE 5.0 km/h 5.6 km/h 72% 0.0 mm CLR
07:45 11.9 °C 7.4 °C 1021.6 hPa NNE 4.8 km/h 8.0 km/h 74% 0.0 mm CLR
07:49 11.9 °C 8.2 °C 1021.8 hPa NNE 4.7 km/h 7.6 km/h 78% 0.0 mm CLR
07:54 11.9 °C 8.7 °C 1021.8 hPa NNE 4.7 km/h 8.4 km/h 81% 0.0 mm CLR
07:59 12.0 °C 9.2 °C 1021.8 hPa NNE 5.8 km/h 7.4 km/h 83% 0.0 mm CLR
08:05 11.9 °C 9.1 °C 1021.9 hPa North 4.8 km/h 9.7 km/h 83% 0.0 mm CLR
08:09 11.9 °C 9.3 °C 1021.9 hPa NNW 5.8 km/h 7.4 km/h 84% 0.0 mm CLR
08:15 11.9 °C 9.4 °C 1021.9 hPa NW 5.8 km/h 9.3 km/h 85% 0.0 mm CLR
08:19 12.1 °C 10.0 °C 1022.2 hPa NNE 5.0 km/h 11.1 km/h 87% 0.0 mm CLR
08:25 12.2 °C 10.1 °C 1022.2 hPa NNE 4.8 km/h 11.3 km/h 87% 0.0 mm CLR
08:29 12.2 °C 10.3 °C 1022.2 hPa NE 6.9 km/h 7.4 km/h 88% 0.0 mm CLR
08:35 12.3 °C 10.4 °C 1022.3 hPa NNE 8.0 km/h 14.5 km/h 88% 0.0 mm CLR
08:39 12.4 °C 10.6 °C 1022.3 hPa NNE 7.6 km/h 11.1 km/h 89% 0.0 mm CLR
08:44 12.6 °C 10.7 °C 1022.3 hPa NNE 7.6 km/h 11.1 km/h 88% 0.0 mm CLR
08:49 12.7 °C 10.8 °C 1022.5 hPa NNE 7.6 km/h 11.1 km/h 88% 0.0 mm CLR
08:55 12.8 °C 10.8 °C 1022.5 hPa NNE 8.0 km/h 12.9 km/h 88% 0.0 mm CLR
08:59 12.8 °C 10.8 °C 1022.5 hPa NNE 7.6 km/h 11.1 km/h 88% 0.0 mm CLR
09:04 13.0 °C 11.1 °C 1022.7 hPa NNE 7.6 km/h 11.1 km/h 88% 0.0 mm CLR
09:09 13.2 °C 11.1 °C 1022.7 hPa NW 6.4 km/h 11.1 km/h 87% 0.0 mm CLR
09:14 13.3 °C 11.2 °C 1022.7 hPa NNW 6.4 km/h 10.0 km/h 87% 0.0 mm CLR
09:19 13.6 °C 11.3 °C 1022.9 hPa NE 5.8 km/h 11.1 km/h 86% 0.0 mm CLR
09:25 13.7 °C 11.2 °C 1022.9 hPa NNE 4.8 km/h 11.3 km/h 85% 0.0 mm CLR
09:29 13.7 °C 11.1 °C 1022.9 hPa NNE 6.9 km/h 10.0 km/h 84% 0.0 mm CLR
09:35 13.9 °C 11.2 °C 1023.1 hPa ENE 6.9 km/h 11.1 km/h 84% 0.0 mm CLR
09:39 14.2 °C 11.3 °C 1023.1 hPa NE 6.4 km/h 11.9 km/h 83% 0.0 mm CLR
09:45 14.3 °C 11.3 °C 1023.1 hPa NNE 8.0 km/h 12.9 km/h 82% 0.0 mm CLR
09:49 14.6 °C 11.4 °C 1023.3 hPa NNE 7.6 km/h 10.0 km/h 81% 0.0 mm CLR
09:55 14.9 °C 11.3 °C 1023.3 hPa NE 8.0 km/h 11.3 km/h 79% 0.0 mm CLR
10:00 15.2 °C 11.4 °C 1023.3 hPa NE 4.8 km/h 9.7 km/h 78% 0.0 mm CLR
10:05 15.4 °C 11.2 °C 1023.3 hPa North 5.0 km/h 5.6 km/h 76% 0.0 mm CLR
10:09 15.8 °C 11.4 °C 1023.3 hPa North 3.9 km/h 3.2 km/h 75% 0.0 mm CLR
10:15 16.2 °C 11.3 °C 1023.3 hPa North 3.9 km/h 3.7 km/h 73% 0.0 mm CLR
10:19 16.4 °C 11.1 °C 1023.3 hPa North 2.9 km/h 3.7 km/h 71% 0.0 mm CLR
10:25 16.7 °C 11.2 °C 1023.3 hPa North 3.2 km/h 6.4 km/h 70% 0.0 mm CLR
10:29 16.9 °C 11.2 °C 1023.3 hPa NNW 2.3 km/h 7.4 km/h 69% 0.0 mm CLR
10:35 17.0 °C 11.1 °C 1023.4 hPa North 2.3 km/h 7.4 km/h 68% 0.0 mm CLR
10:39 17.1 °C 11.2 °C 1023.4 hPa NE 3.9 km/h 5.6 km/h 68% 0.0 mm CLR
10:45 17.2 °C 10.8 °C 1023.4 hPa NE 3.9 km/h 5.6 km/h 66% 0.0 mm CLR
10:49 17.3 °C 10.9 °C 1023.3 hPa NNE 3.2 km/h 3.7 km/h 66% 0.0 mm CLR
10:55 17.6 °C 10.7 °C 1023.3 hPa NE 3.2 km/h 8.0 km/h 64% 0.0 mm CLR
11:00 17.7 °C 10.3 °C 1023.3 hPa NE 3.2 km/h 8.0 km/h 62% 0.0 mm CLR
11:05 17.6 °C 9.5 °C 1023.1 hPa SE 3.2 km/h 9.3 km/h 59% 0.0 mm CLR
11:09 17.5 °C 8.9 °C 1023.1 hPa ESE 6.4 km/h 7.4 km/h 57% 0.0 mm CLR
11:15 17.4 °C 8.6 °C 1023.1 hPa ESE 8.0 km/h 11.3 km/h 56% 0.0 mm CLR
11:19 17.8 °C 8.9 °C 1022.9 hPa SE 5.0 km/h 7.6 km/h 56% 0.0 mm CLR
11:25 17.9 °C 8.7 °C 1022.9 hPa South 5.0 km/h 7.4 km/h 55% 0.0 mm CLR
11:29 17.9 °C 8.2 °C 1022.9 hPa SSW 5.8 km/h 7.6 km/h 53% 0.0 mm CLR
11:35 18.1 °C 7.8 °C 1022.8 hPa SSE 5.8 km/h 7.4 km/h 51% 0.0 mm CLR
11:39 18.3 °C 7.4 °C 1022.8 hPa SSW 4.7 km/h 7.4 km/h 49% 0.0 mm CLR
11:45 18.5 °C 7.9 °C 1022.8 hPa SSW 3.2 km/h 9.7 km/h 50% 0.0 mm CLR
11:50 18.7 °C 8.1 °C 1022.8 hPa SW 3.9 km/h 9.3 km/h 50% 0.0 mm CLR
11:54 18.9 °C 7.7 °C 1022.8 hPa SSW 3.9 km/h 7.4 km/h 48% 0.0 mm CLR
11:59 19.1 °C 7.5 °C 1022.8 hPa SW 4.7 km/h 9.3 km/h 47% 0.0 mm CLR
12:05 19.3 °C 7.1 °C 1022.8 hPa SSW 3.2 km/h 8.0 km/h 45% 0.0 mm CLR
12:09 19.4 °C 6.8 °C 1022.8 hPa WNW 5.0 km/h 7.4 km/h 44% 0.0 mm CLR
12:15 19.4 °C 6.8 °C 1022.8 hPa WNW 4.8 km/h 8.0 km/h 44% 0.0 mm CLR
12:19 19.6 °C 6.7 °C 1022.8 hPa SSE 3.2 km/h 7.4 km/h 43% 0.0 mm CLR
12:25 19.9 °C 6.9 °C 1022.8 hPa WSW 3.2 km/h 8.0 km/h 43% 0.0 mm CLR
12:29 20.3 °C 6.2 °C 1022.8 hPa NNW 3.2 km/h 6.4 km/h 40% 0.0 mm CLR
12:35 20.2 °C 6.2 °C 1022.9 hPa NNE 3.2 km/h 5.6 km/h 40% 0.0 mm CLR
12:39 20.2 °C 6.2 °C 1022.9 hPa North 3.9 km/h 9.3 km/h 40% 0.0 mm CLR
12:45 20.1 °C 6.4 °C 1022.9 hPa North 3.2 km/h 11.3 km/h 41% 0.0 mm CLR
12:49 20.1 °C 6.8 °C 1022.6 hPa North 5.8 km/h 9.3 km/h 42% 0.0 mm CLR
12:55 20.1 °C 5.7 °C 1022.6 hPa North 4.8 km/h 12.9 km/h 39% 0.0 mm CLR
12:59 20.1 °C 6.1 °C 1022.6 hPa NE 6.9 km/h 9.3 km/h 40% 0.0 mm CLR
13:05 20.2 °C 5.4 °C 1022.4 hPa NE 8.0 km/h 11.3 km/h 38% 0.0 mm CLR
13:09 20.4 °C 5.2 °C 1022.4 hPa NE 5.8 km/h 8.7 km/h 37% 0.0 mm CLR
13:15 20.5 °C 4.9 °C 1022.4 hPa NE 4.8 km/h 11.3 km/h 36% 0.0 mm CLR
13:19 20.5 °C 4.5 °C 1022.1 hPa NE 6.9 km/h 5.6 km/h 35% 0.0 mm CLR
13:25 20.8 °C 4.8 °C 1022.1 hPa WNW 6.9 km/h 7.4 km/h 35% 0.0 mm CLR
13:29 20.9 °C 3.6 °C 1022.1 hPa NE 5.0 km/h 7.4 km/h 32% 0.0 mm CLR
13:35 20.8 °C 3.5 °C 1022.0 hPa NE 4.8 km/h 14.5 km/h 32% 0.0 mm CLR
13:39 20.8 °C 3.5 °C 1022.0 hPa South 6.9 km/h 5.6 km/h 32% 0.0 mm CLR
13:45 21.1 °C 4.2 °C 1022.0 hPa East 8.0 km/h 11.3 km/h 33% 0.0 mm CLR
13:49 21.2 °C 3.8 °C 1021.7 hPa NW 5.8 km/h 13.0 km/h 32% 0.0 mm CLR
13:55 21.3 °C 3.5 °C 1021.7 hPa NNW 4.8 km/h 8.0 km/h 31% 0.0 mm CLR
14:00 21.5 °C 4.1 °C 1021.7 hPa NW 3.2 km/h 11.3 km/h 32% 0.0 mm CLR
14:05 21.4 °C 4.4 °C 1021.4 hPa East 3.9 km/h 9.3 km/h 33% 0.0 mm CLR
14:09 21.6 °C 4.2 °C 1021.4 hPa NNW 6.9 km/h 9.3 km/h 32% 0.0 mm CLR
14:15 21.5 °C 4.1 °C 1021.4 hPa NNW 8.0 km/h 11.3 km/h 32% 0.0 mm CLR
14:19 21.5 °C 4.1 °C 1021.2 hPa NNE 5.8 km/h 5.8 km/h 32% 0.0 mm CLR
14:25 21.5 °C 4.1 °C 1021.2 hPa NE 5.8 km/h 13.0 km/h 32% 0.0 mm CLR
14:29 21.4 °C 4.0 °C 1021.2 hPa NE 5.8 km/h 9.3 km/h 32% 0.0 mm CLR
14:35 21.4 °C 4.0 °C 1021.1 hPa North 5.8 km/h 11.1 km/h 32% 0.0 mm CLR
14:39 21.5 °C 4.1 °C 1021.1 hPa NW 5.8 km/h 9.3 km/h 32% 0.0 mm CLR
14:45 21.6 °C 4.2 °C 1021.1 hPa NNW 4.8 km/h 11.3 km/h 32% 0.0 mm CLR
14:49 21.6 °C 4.2 °C 1021.0 hPa North 5.0 km/h 7.4 km/h 32% 0.0 mm CLR
14:54 21.8 °C 4.4 °C 1021.0 hPa NE 5.0 km/h 11.1 km/h 32% 0.0 mm CLR
15:00 21.8 °C 4.4 °C 1021.0 hPa NE 4.8 km/h 9.7 km/h 32% 0.0 mm CLR
15:05 21.9 °C 4.4 °C 1020.8 hPa NNE 4.8 km/h 9.7 km/h 32% 0.0 mm CLR
15:09 21.9 °C 4.0 °C 1020.8 hPa NE 5.0 km/h 7.4 km/h 31% 0.0 mm CLR
15:15 22.0 °C 4.1 °C 1020.8 hPa NE 5.0 km/h 7.4 km/h 31% 0.0 mm CLR
15:19 22.2 °C 3.8 °C 1020.7 hPa NNE 4.7 km/h 3.7 km/h 30% 0.0 mm CLR
15:25 22.4 °C 3.9 °C 1020.7 hPa WNW 4.7 km/h 5.6 km/h 30% 0.0 mm CLR
15:29 22.4 °C 3.9 °C 1020.7 hPa ESE 3.9 km/h 7.4 km/h 30% 0.0 mm CLR
15:35 22.6 °C 4.1 °C 1020.5 hPa East 3.2 km/h 8.0 km/h 30% 0.0 mm CLR
15:39 22.6 °C 3.7 °C 1020.5 hPa ESE 3.9 km/h 7.6 km/h 29% 0.0 mm CLR
15:45 22.6 °C 3.7 °C 1020.5 hPa ESE 3.9 km/h 7.4 km/h 29% 0.0 mm CLR
15:49 22.6 °C 3.7 °C 1020.5 hPa East 5.8 km/h 7.4 km/h 29% 0.0 mm CLR
15:55 22.7 °C 3.7 °C 1020.5 hPa ENE 4.8 km/h 8.0 km/h 29% 0.0 mm CLR
16:00 22.7 °C 3.7 °C 1020.5 hPa NE 3.2 km/h 11.3 km/h 29% 0.0 mm CLR
16:05 22.7 °C 3.7 °C 1020.3 hPa NE 4.7 km/h 5.6 km/h 29% 0.0 mm CLR
16:09 22.9 °C 3.9 °C 1020.3 hPa ESE 5.0 km/h 6.9 km/h 29% 0.0 mm CLR
16:15 22.9 °C 3.9 °C 1020.3 hPa ENE 4.8 km/h 11.3 km/h 29% 0.0 mm CLR
16:19 23.0 °C 4.0 °C 1020.3 hPa ENE 4.7 km/h 7.4 km/h 29% 0.0 mm CLR
16:25 23.2 °C 3.7 °C 1020.3 hPa SSW 4.7 km/h 7.4 km/h 28% 0.0 mm CLR
16:29 23.3 °C 3.8 °C 1020.3 hPa ENE 3.9 km/h 7.4 km/h 28% 0.0 mm CLR
16:35 23.2 °C 3.7 °C 1020.3 hPa East 3.2 km/h 11.3 km/h 28% 0.0 mm CLR
16:39 23.2 °C 4.2 °C 1020.3 hPa ENE 4.7 km/h 8.7 km/h 29% 0.0 mm CLR
16:45 23.1 °C 6.8 °C 1020.3 hPa ESE 3.2 km/h 20.9 km/h 35% 0.0 mm CLR
16:50 22.4 °C 6.6 °C 1020.3 hPa ESE 10.3 km/h 22.2 km/h 36% 0.0 mm CLR
16:55 22.3 °C 6.5 °C 1020.3 hPa ESE 11.3 km/h 20.9 km/h 36% 0.0 mm CLR
17:00 22.3 °C 6.5 °C 1020.3 hPa ESE 12.9 km/h 22.5 km/h 36% 0.0 mm CLR
17:05 22.2 °C 6.0 °C 1020.3 hPa ESE 12.9 km/h 22.5 km/h 35% 0.0 mm CLR
17:09 22.1 °C 5.9 °C 1020.3 hPa SE 13.0 km/h 16.7 km/h 35% 0.0 mm CLR
17:15 22.1 °C 5.9 °C 1020.3 hPa SE 13.0 km/h 16.7 km/h 35% 0.0 mm CLR
17:19 21.9 °C 5.7 °C 1020.2 hPa ESE 13.0 km/h 19.0 km/h 35% 0.0 mm CLR
17:25 21.7 °C 5.6 °C 1020.2 hPa SE 13.0 km/h 25.9 km/h 35% 0.0 mm CLR
17:29 21.5 °C 5.4 °C 1020.2 hPa ESE 15.6 km/h 24.1 km/h 35% 0.0 mm CLR
17:35 21.3 °C 5.6 °C 1020.4 hPa ESE 14.5 km/h 24.1 km/h 36% 0.0 mm CLR
17:39 21.1 °C 6.2 °C 1020.4 hPa ESE 17.2 km/h 23.3 km/h 38% 0.0 mm CLR
17:45 20.9 °C 6.1 °C 1020.4 hPa ESE 17.2 km/h 14.8 km/h 38% 0.0 mm CLR
17:49 20.9 °C 5.7 °C 1020.5 hPa ESE 14.8 km/h 22.5 km/h 37% 0.0 mm CLR
17:55 20.7 °C 5.5 °C 1020.5 hPa ESE 14.8 km/h 18.5 km/h 37% 0.0 mm CLR
18:00 20.6 °C 5.8 °C 1020.5 hPa ESE 14.5 km/h 19.3 km/h 38% 0.0 mm CLR
18:05 20.6 °C 6.1 °C 1020.6 hPa ESE 14.5 km/h 20.9 km/h 39% 0.0 mm CLR
18:10 20.3 °C 6.3 °C 1020.6 hPa ESE 12.9 km/h 25.7 km/h 40% 0.0 mm CLR
18:15 20.2 °C 6.5 °C 1020.6 hPa ESE 12.9 km/h 20.9 km/h 41% 0.0 mm CLR
18:19 19.9 °C 6.6 °C 1020.8 hPa ESE 14.8 km/h 20.4 km/h 42% 0.0 mm CLR
18:25 19.8 °C 6.8 °C 1020.8 hPa East 14.8 km/h 14.8 km/h 43% 0.0 mm CLR
18:29 19.7 °C 6.8 °C 1020.8 hPa ESE 13.7 km/h 14.8 km/h 43% 0.0 mm CLR
18:35 19.5 °C 6.6 °C 1020.9 hPa ESE 13.7 km/h 18.5 km/h 43% 0.0 mm CLR
18:39 19.3 °C 6.7 °C 1020.9 hPa East 12.2 km/h 20.4 km/h 44% 0.0 mm CLR
18:45 19.2 °C 6.7 °C 1020.9 hPa ESE 12.9 km/h 20.9 km/h 44% 0.0 mm CLR
18:49 19.0 °C 7.1 °C 1021.1 hPa East 11.9 km/h 16.7 km/h 46% 0.0 mm CLR
18:55 18.9 °C 7.3 °C 1021.1 hPa East 11.3 km/h 16.1 km/h 47% 0.0 mm CLR
19:00 18.7 °C 7.4 °C 1021.1 hPa East 9.7 km/h 14.5 km/h 48% 0.0 mm CLR
19:05 18.6 °C 7.7 °C 1021.3 hPa NE 9.5 km/h 9.3 km/h 49% 0.0 mm CLR
19:09 18.3 °C 7.7 °C 1021.3 hPa ENE 5.8 km/h 11.1 km/h 50% 0.0 mm CLR
19:15 18.2 °C 7.8 °C 1021.3 hPa NE 4.8 km/h 14.5 km/h 51% 0.0 mm CLR
19:20 17.9 °C 8.2 °C 1021.5 hPa NE 8.7 km/h 14.8 km/h 53% 0.0 mm CLR
19:25 17.8 °C 8.4 °C 1021.5 hPa NE 9.7 km/h 19.3 km/h 54% 0.0 mm CLR
19:30 17.7 °C 7.2 °C 1021.5 hPa NNE 11.1 km/h 13.0 km/h 50% 0.0 mm CLR
19:35 17.7 °C 7.4 °C 1021.7 hPa NE 11.3 km/h 16.1 km/h 51% 0.0 mm CLR
19:39 17.3 °C 7.9 °C 1021.7 hPa NE 10.0 km/h 13.0 km/h 54% 0.0 mm CLR
19:45 17.2 °C 8.1 °C 1021.7 hPa NE 10.0 km/h 13.0 km/h 55% 0.0 mm CLR
19:50 17.0 °C 8.4 °C 1021.9 hPa NNE 9.7 km/h 14.5 km/h 57% 0.0 mm CLR
19:55 16.7 °C 8.7 °C 1021.9 hPa NNE 10.0 km/h 13.0 km/h 59% 0.0 mm CLR
20:00 16.6 °C 9.0 °C 1021.9 hPa NE 9.7 km/h 14.5 km/h 61% 0.0 mm CLR
20:05 16.3 °C 9.2 °C 1022.1 hPa NE 9.7 km/h 14.5 km/h 63% 0.0 mm CLR
20:10 16.0 °C 9.4 °C 1022.1 hPa NNE 9.7 km/h 16.1 km/h 65% 0.0 mm CLR
20:15 15.8 °C 9.7 °C 1022.1 hPa NNE 9.7 km/h 12.9 km/h 67% 0.0 mm CLR
20:20 15.6 °C 9.7 °C 1022.2 hPa NNE 9.5 km/h 11.9 km/h 68% 0.0 mm CLR
20:25 15.4 °C 9.7 °C 1022.2 hPa NE 9.5 km/h 7.4 km/h 69% 0.0 mm CLR
20:29 15.3 °C 10.1 °C 1022.2 hPa NE 6.9 km/h 14.8 km/h 71% 0.0 mm CLR
20:35 15.1 °C 10.1 °C 1022.4 hPa East 6.9 km/h 14.8 km/h 72% 0.0 mm CLR
20:39 14.9 °C 10.1 °C 1022.4 hPa North 8.7 km/h 13.0 km/h 73% 0.0 mm CLR
20:45 14.8 °C 10.0 °C 1022.4 hPa North 8.7 km/h 7.4 km/h 73% 0.0 mm CLR
20:50 14.8 °C 10.2 °C 1022.5 hPa NNE 4.8 km/h 8.0 km/h 74% 0.0 mm CLR
20:55 14.7 °C 10.1 °C 1022.5 hPa North 5.8 km/h 5.6 km/h 74% 0.0 mm CLR
21:00 14.7 °C 10.1 °C 1022.5 hPa North 3.2 km/h 8.0 km/h 74% 0.0 mm CLR
21:05 14.7 °C 10.3 °C 1022.6 hPa NNW 3.2 km/h 8.0 km/h 75% 0.0 mm CLR
21:09 14.6 °C 10.2 °C 1022.6 hPa NW 2.9 km/h 5.6 km/h 75% 0.0 mm CLR
21:15 14.6 °C 10.4 °C 1022.6 hPa NW 2.9 km/h 3.7 km/h 76% 0.0 mm CLR
21:19 14.5 °C 10.3 °C 1022.8 hPa NW 2.3 km/h 7.4 km/h 76% 0.0 mm CLR
21:25 14.4 °C 10.4 °C 1022.8 hPa NW 1.6 km/h 3.2 km/h 77% 0.0 mm CLR
21:29 14.3 °C 10.3 °C 1022.8 hPa NW 2.9 km/h 3.7 km/h 77% 0.0 mm CLR
21:35 14.3 °C 10.5 °C 1022.9 hPa NW 3.2 km/h 3.2 km/h 78% 0.0 mm CLR
21:39 14.2 °C 10.4 °C 1022.9 hPa Calm   3.7 km/h 78% 0.0 mm CLR
21:45 14.2 °C 10.4 °C 1022.9 hPa Calm   4.8 km/h 78% 0.0 mm CLR
21:49 14.1 °C 10.5 °C 1022.9 hPa NW 2.3 km/h   79% 0.0 mm CLR
21:55 14.1 °C 10.5 °C 1022.9 hPa NW 2.3 km/h 3.7 km/h 79% 0.0 mm CLR
22:00 14.1 °C 10.5 °C 1022.9 hPa Calm   1.6 km/h 79% 0.0 mm CLR
22:05 14.1 °C 10.5 °C 1023.1 hPa Calm     79% 0.0 mm CLR
22:10 14.0 °C 10.6 °C 1023.1 hPa Calm   5.6 km/h 80% 0.0 mm CLR
22:15 13.9 °C 10.6 °C 1023.1 hPa Calm   6.4 km/h 80% 0.0 mm CLR
22:19 13.9 °C 10.5 °C 1023.0 hPa NW 2.3 km/h   80% 0.0 mm CLR
22:25 13.9 °C 10.5 °C 1023.0 hPa NW 2.3 km/h   80% 0.0 mm CLR
22:29 13.8 °C 10.4 °C 1023.0 hPa Calm     80% 0.0 mm CLR
22:35 13.8 °C 10.4 °C 1023.1 hPa Calm     80% 0.0 mm CLR
22:39 13.8 °C 10.6 °C 1023.1 hPa Calm     81% 0.0 mm CLR
22:45 13.8 °C 10.4 °C 1023.1 hPa Calm     80% 0.0 mm CLR
22:49 13.8 °C 10.4 °C 1023.2 hPa Calm   3.7 km/h 80% 0.0 mm CLR
22:55 13.8 °C 10.6 °C 1023.2 hPa Calm   7.4 km/h 81% 0.0 mm CLR
23:00 13.7 °C 10.6 °C 1023.2 hPa WNW 3.2 km/h 4.8 km/h 81% 0.0 mm CLR
23:05 13.7 °C 10.3 °C 1023.2 hPa WNW 3.2 km/h 4.8 km/h 80% 0.0 mm CLR
23:10 13.7 °C 10.1 °C 1023.2 hPa WNW 2.3 km/h   79% 0.0 mm CLR
23:15 13.7 °C 10.1 °C 1023.2 hPa WNW 2.3 km/h 3.7 km/h 79% 0.0 mm CLR
23:20 13.6 °C 10.0 °C 1023.2 hPa WNW 2.3 km/h   79% 0.0 mm CLR
23:25 13.6 °C 10.0 °C 1023.2 hPa WNW 1.6 km/h 3.2 km/h 79% 0.0 mm CLR
23:30 13.6 °C 9.8 °C 1023.2 hPa Calm     78% 0.0 mm CLR
23:35 13.6 °C 9.8 °C 1023.2 hPa Calm     78% 0.0 mm CLR
23:39 13.4 °C 9.7 °C 1023.2 hPa Calm     78% 0.0 mm CLR
23:45 13.4 °C 9.4 °C 1023.2 hPa Calm     77% 0.0 mm CLR
23:49 13.4 °C 9.4 °C 1023.1 hPa Calm   7.4 km/h 77% 0.0 mm CLR
23:55 13.3 °C 9.6 °C 1023.1 hPa Calm   9.7 km/h 78% 0.0 mm CLR
23:59 13.3 °C 9.6 °C 1023.1 hPa SSW 6.4 km/h 7.4 km/h 78% 0.0 mm CLR
Murcia-Puente Tocinos, España
Compliments of Weather Underground - 2.75 mb

La estación de MeteoMurcia.com, publica sus datos en los siguientes proyectos:

Weather Underground PWS IMURCIAP2 Meteoclimatic www.awekas.at

W3Counter
Web Analytics